| time (UTC) | temp F | wind direction | speed knots | gust knots | rain 1hr in | rain 24hr in | rain mn in | humidity % | barometer mb |
| 20260508033326 | 57 | 360 | 0.9 | 0.0 | 0.00 | 0.00 | 0.00 | 94 | 1015.0 |
| 20260508031827 | 57 | 360 | 0.9 | 0.0 | 0.00 | 0.00 | 0.00 | 94 | 1015.0 |
| 20260508030327 | 57 | 360 | 0.9 | 0.0 | 0.00 | 0.00 | 0.00 | 94 | 1015.0 |
| 20260508024826 | 57 | 340 | 0.9 | 0.0 | 0.00 | 0.00 | 0.00 | 94 | 1015.0 |
| 20260508023327 | 57 | 340 | 0.9 | 0.0 | 0.00 | 0.00 | 0.00 | 94 | 1015.0 |
| 20260508021827 | 57 | 0 | 0.0 | 0.0 | 0.00 | 0.00 | 0.00 | 94 | 1015.0 |
| 20260508020326 | 57 | 0 | 0.0 | 0.0 | 0.00 | 0.00 | 0.00 | 94 | 1015.0 |
| 20260508014826 | 57 | 0 | 0.0 | 0.0 | 0.00 | 0.00 | 0.00 | 94 | 1015.0 |
| 20260508013326 | 57 | 0 | 0.0 | 0.0 | 0.00 | 0.00 | 0.00 | 94 | 1015.0 |
| 20260508011826 | 59 | 210 | 0.9 | 0.0 | 0.00 | 0.00 | 0.00 | 88 | 1015.0 |
| 20260508010326 | 59 | 210 | 0.9 | 0.0 | 0.00 | 0.00 | 0.00 | 88 | 1015.0 |
| 20260508004827 | 59 | 0 | 0.0 | 0.0 | 0.00 | 0.00 | 0.00 | 88 | 1015.0 |
| 20260508003326 | 59 | 0 | 0.0 | 0.0 | 0.00 | 0.00 | 0.00 | 88 | 1015.0 |
| 20260508001825 | 59 | 190 | 1.7 | 0.0 | 0.00 | 0.00 | 0.00 | 88 | 1015.0 |
| 20260508000327 | 59 | 190 | 1.7 | 0.0 | 0.00 | 0.00 | 0.00 | 88 | 1015.0 |
| 20260507234827 | 59 | 250 | 0.9 | 0.0 | 0.00 | 0.00 | 0.00 | 88 | 1015.0 |
| 20260507233326 | 59 | 250 | 0.9 | 0.0 | 0.00 | 0.00 | 0.00 | 88 | 1015.0 |
| 20260507231826 | 59 | 250 | 0.9 | 0.0 | 0.00 | 0.00 | 0.00 | 88 | 1015.0 |
| 20260507230326 | 59 | 250 | 0.9 | 0.0 | 0.00 | 0.00 | 0.00 | 88 | 1015.0 |
| 20260507224826 | 59 | 250 | 4.3 | 0.0 | 0.00 | 0.00 | 0.00 | 94 | 1015.0 |
| 20260507223444 | 59 | 250 | 4.3 | 0.0 | 0.00 | 0.00 | 0.00 | 94 | 1015.0 |
| 20260507221826 | 59 | 240 | 4.3 | 0.0 | 0.00 | 0.00 | 0.00 | 94 | 1015.0 |
| 20260507220326 | 59 | 240 | 4.3 | 0.0 | 0.00 | 0.00 | 0.00 | 94 | 1015.0 |
| 20260507214826 | 61 | 210 | 0.9 | 0.0 | 0.00 | 0.00 | 0.00 | 88 | 1015.0 |
| 20260507213328 | 61 | 210 | 0.9 | 0.0 | 0.00 | 0.00 | 0.00 | 88 | 1015.0 |
| 20260507211826 | 61 | 230 | 5.2 | 0.0 | 0.00 | 0.00 | 0.00 | 94 | 1015.0 |
| 20260507210327 | 61 | 230 | 5.2 | 0.0 | 0.00 | 0.00 | 0.00 | 94 | 1015.0 |
| 20260507204826 | 61 | 240 | 5.2 | 0.0 | 0.00 | 0.00 | 0.00 | 88 | 1015.0 |
| 20260507203326 | 61 | 240 | 5.2 | 0.0 | 0.00 | 0.00 | 0.00 | 88 | 1015.0 |
| 20260507201826 | 61 | 230 | 7.8 | 0.0 | 0.00 | 0.00 | 0.00 | 88 | 1015.0 |
| 20260507200327 | 61 | 230 | 7.8 | 0.0 | 0.00 | 0.00 | 0.00 | 88 | 1015.0 |
| 20260507194832 | 61 | 240 | 6.1 | 0.0 | 0.00 | 0.00 | 0.00 | 83 | 1015.0 |
| 20260507193326 | 61 | 240 | 6.1 | 0.0 | 0.00 | 0.00 | 0.00 | 83 | 1015.0 |
| 20260507191826 | 64 | 250 | 1.7 | 0.0 | 0.00 | 0.00 | 0.00 | 73 | 1014.0 |
| 20260507190327 | 64 | 250 | 1.7 | 0.0 | 0.00 | 0.00 | 0.00 | 73 | 1014.0 |
| 20260507184828 | 64 | 0.9 | 0.0 | 0.00 | 0.00 | 0.00 | 73 | 1014.0 | |
| 20260507183326 | 64 | 0.9 | 0.0 | 0.00 | 0.00 | 0.00 | 73 | 1014.0 | |
| 20260507181826 | 66 | 0.9 | 0.0 | 0.00 | 0.00 | 0.00 | 68 | 1014.0 | |
| 20260507180326 | 66 | 0.9 | 0.0 | 0.00 | 0.00 | 0.00 | 68 | 1014.0 | |
| 20260507174826 | 68 | 280 | 2.6 | 0.0 | 0.00 | 0.00 | 0.00 | 64 | 1013.0 |
| 20260507173327 | 68 | 280 | 2.6 | 0.0 | 0.00 | 0.00 | 0.00 | 64 | 1013.0 |
| 20260507171827 | 68 | 300 | 4.3 | 0.0 | 0.00 | 0.00 | 0.00 | 60 | 1013.0 |
| 20260507170326 | 68 | 300 | 4.3 | 0.0 | 0.00 | 0.00 | 0.00 | 60 | 1013.0 |
| 20260507164827 | 70 | 290 | 4.3 | 0.0 | 0.00 | 0.00 | 0.00 | 57 | 1013.0 |
| 20260507163326 | 70 | 290 | 4.3 | 0.0 | 0.00 | 0.00 | 0.00 | 57 | 1013.0 |
| 20260507161826 | 72 | 290 | 2.6 | 0.0 | 0.00 | 0.00 | 0.00 | 53 | 1013.0 |
| 20260507160326 | 72 | 290 | 2.6 | 0.0 | 0.00 | 0.00 | 0.00 | 53 | 1013.0 |
| 20260507154826 | 73 | 280 | 5.2 | 0.0 | 0.00 | 0.00 | 0.00 | 47 | 1013.0 |
| 20260507153326 | 73 | 280 | 5.2 | 0.0 | 0.00 | 0.00 | 0.00 | 47 | 1013.0 |
| 20260507151826 | 72 | 270 | 7.0 | 0.0 | 0.00 | 0.00 | 0.00 | 50 | 1013.0 |
| 20260507150326 | 72 | 270 | 7.0 | 0.0 | 0.00 | 0.00 | 0.00 | 50 | 1013.0 |
| 20260507144826 | 72 | 250 | 12.2 | 0.0 | 0.00 | 0.00 | 0.00 | 50 | 1013.0 |
| 20260507143328 | 72 | 250 | 12.2 | 0.0 | 0.00 | 0.00 | 0.00 | 50 | 1013.0 |
| 20260507141826 | 73 | 240 | 14.8 | 0.0 | 0.00 | 0.00 | 0.00 | 50 | 1013.0 |
| 20260507140326 | 73 | 240 | 14.8 | 0.0 | 0.00 | 0.00 | 0.00 | 50 | 1013.0 |
| 20260507134827 | 75 | 250 | 7.0 | 0.0 | 0.00 | 0.00 | 0.00 | 50 | 1013.0 |
| 20260507133326 | 75 | 250 | 7.0 | 0.0 | 0.00 | 0.00 | 0.00 | 50 | 1013.0 |
| 20260507131823 | 73 | 320 | 6.1 | 0.0 | 0.00 | 0.00 | 0.00 | 44 | 1012.0 |
| 20260507130326 | 73 | 320 | 6.1 | 0.0 | 0.00 | 0.00 | 0.00 | 44 | 1012.0 |
| 20260507123404 | 79 | 2.6 | 0.0 | 0.00 | 0.00 | 0.00 | 34 | 1013.0 | |
| 20260507121826 | 79 | 2.6 | 0.0 | 0.00 | 0.00 | 0.00 | 37 | 1013.0 | |
| 20260507120326 | 79 | 2.6 | 0.0 | 0.00 | 0.00 | 0.00 | 37 | 1013.0 | |
| 20260507114826 | 81 | 2.6 | 0.0 | 0.00 | 0.00 | 0.00 | 32 | 1013.0 | |
| 20260507113344 | 81 | 280 | 4.3 | 0.0 | 0.00 | 0.00 | 0.00 | 32 | 1013.0 |
| 20260507111826 | 81 | 280 | 4.3 | 0.0 | 0.00 | 0.00 | 0.00 | 32 | 1013.0 |
| 20260507110326 | 81 | 280 | 4.3 | 0.0 | 0.00 | 0.00 | 0.00 | 32 | 1013.0 |
| 20260507104826 | 79 | 1.7 | 0.0 | 0.00 | 0.00 | 0.00 | 37 | 1014.0 | |
| 20260507103326 | 79 | 1.7 | 0.0 | 0.00 | 0.00 | 0.00 | 37 | 1014.0 | |
| 20260507101826 | 77 | 240 | 5.2 | 0.0 | 0.00 | 0.00 | 0.00 | 39 | 1014.0 |
| 20260507100327 | 77 | 240 | 5.2 | 0.0 | 0.00 | 0.00 | 0.00 | 39 | 1014.0 |
| 20260507094826 | 77 | 4.3 | 0.0 | 0.00 | 0.00 | 0.00 | 36 | 1014.0 | |
| 20260507093327 | 77 | 4.3 | 0.0 | 0.00 | 0.00 | 0.00 | 36 | 1014.0 | |
| 20260507091828 | 75 | 2.6 | 0.0 | 0.00 | 0.00 | 0.00 | 41 | 1014.0 | |
| 20260507090326 | 75 | 2.6 | 0.0 | 0.00 | 0.00 | 0.00 | 41 | 1014.0 | |
| 20260507084826 | 75 | 2.6 | 0.0 | 0.00 | 0.00 | 0.00 | 47 | 1014.0 | |
| 20260507083327 | 75 | 2.6 | 0.0 | 0.00 | 0.00 | 0.00 | 47 | 1014.0 | |
| 20260507081826 | 70 | 100 | 4.3 | 0.0 | 0.00 | 0.00 | 0.00 | 53 | 1014.0 |
| 20260507080327 | 70 | 100 | 4.3 | 0.0 | 0.00 | 0.00 | 0.00 | 53 | 1014.0 |
| 20260507074827 | 72 | 110 | 6.1 | 0.0 | 0.00 | 0.00 | 0.00 | 47 | 1014.0 |
| 20260507073326 | 72 | 110 | 6.1 | 0.0 | 0.00 | 0.00 | 0.00 | 47 | 1014.0 |
| 20260507071826 | 68 | 2.6 | 0.0 | 0.00 | 0.00 | 0.00 | 56 | 1015.0 | |
| 20260507070326 | 68 | 2.6 | 0.0 | 0.00 | 0.00 | 0.00 | 56 | 1015.0 | |
| 20260507064826 | 64 | 60 | 2.6 | 0.0 | 0.00 | 0.00 | 0.00 | 60 | 1015.0 |
| 20260507063326 | 64 | 60 | 2.6 | 0.0 | 0.00 | 0.00 | 0.00 | 60 | 1015.0 |
| 20260507061836 | 61 | 80 | 4.3 | 0.0 | 0.00 | 0.00 | 0.00 | 68 | 1015.0 |
| 20260507060326 | 61 | 80 | 4.3 | 0.0 | 0.00 | 0.00 | 0.00 | 68 | 1015.0 |
| 20260507054826 | 59 | 60 | 6.1 | 0.0 | 0.00 | 0.00 | 0.00 | 68 | 1015.0 |
| 20260507053333 | 59 | 60 | 6.1 | 0.0 | 0.00 | 0.00 | 0.00 | 68 | 1015.0 |
| 20260507051827 | 54 | 80 | 6.1 | 0.0 | 0.00 | 0.00 | 0.00 | 77 | 1015.0 |
| 20260507050326 | 54 | 80 | 6.1 | 0.0 | 0.00 | 0.00 | 0.00 | 77 | 1015.0 |
| 20260507044823 | 54 | 90 | 6.1 | 0.0 | 0.00 | 0.00 | 0.00 | 77 | 1014.0 |
| 20260507043326 | 54 | 90 | 6.1 | 0.0 | 0.00 | 0.00 | 0.00 | 77 | 1014.0 |
| 20260507041826 | 52 | 100 | 6.1 | 0.0 | 0.00 | 0.00 | 0.00 | 82 | 1014.0 |
| 20260507040326 | 52 | 100 | 6.1 | 0.0 | 0.00 | 0.00 | 0.00 | 82 | 1014.0 |
| 20260507034823 | 52 | 100 | 6.1 | 0.0 | 0.00 | 0.00 | 0.00 | 77 | 1014.0 |